SCP
0 0 -0 0 0 0 0 0 0 0 0 0 0 0 0 0 0 0 0 0 0 0 0 0 0 0 0 0 0 0 0 0 0 0 0 0 0 0 0 0 0 0 0
0 0 -0 -0 -0 0 0 0 0 0 0 0 0 0 0 0 0 0 0 0 0 0 0 0 0 0 0 0 0 0 0 0 0 0 0 0 0 0 0 0 0 0 0
0 0 0 -0 -0 0 0 0 0 0 0 0 0 0 0 0 0 0 0 0 0 0 0 0 0 0 0 0 0 0 0 0 0 0 0 0 0 0 0 0 0 0 0
0 0 0 -0 -0 0 0 0 0 0 0 0 0 0 0 0 0 0 0 0 0 0 0 0 0 0 0 0 0 0 0 0 0 0 0 0 0 0 0 0 0 0 0
0 0 0 -0 0 0 0 0 0 0 0 0 0 0 0 0 0 0 0 0 0 0 0 0 0 0 0 0 0 0 0 0 0 0 0 0 0 0 0 0 0 0 0
0 0 0 0 0 0 0 0 0 0 0 0 0 0 0 0 0 0 0 -0 -0 -0 -0 -0 -0 0 0 0 0 0 0 0 0 0 0 0 0 0 0 0 0 0 0
0 0 0 0 0 0 0 0 0 0 0 0 0 0 0 0 0 -0 -0 -0 -0 -0 -0 -0 -0 -0 0 0 0 0 0 0 0 0 0 0 0 0 0 0 0 0 0
0 0 0 0 0 0 0 0 0 0 0 0 0 -0 -0 -0 -0 -0 -0 -0 -0 -0 -0 -0 0 0 0 0 0 0 0 0 0 0 0 0 0 0 0 0 0 0 0
0 0 0 0 0 0 0 0 0 0 0 0 0 0 -0 -0 -0 0 -0 -0 -0 -0 0 0 0 0 0 0 0 0 0 0 0 0 0 0 0 0 0 0 0 0 0
0 0 0 0 0 0 0 0 0 0 0 0 0 0 -0 -0 0 0 0 -0 -0 -0 0 0 0 0 0 0 0 0 0 0 0 0 0 0 0 0 0 0 0 0 0
1 0 0 0 0 0 0 0 0 0 0 0 0 0 0 0 0 0 0 0 0 0 0 0 0 0 0 0 0 0 0 0 0 0 0 0 0 0 0 0 0 0 0
1 1 0 0 0 0 0 0 0 0 0 0 0 0 0 0 0 0 0 0 0 0 0 0 0 0 0 0 0 0 0 0 0 0 0 0 0 0 0 0 0 0 0
1 1 1 0 1 0 1 0 0 0 0 0 0 0 0 0 0 0 0 0 0 0 0 0 0 0 0 0 0 0 0 0 0 0 0 0 0 0 0 0 0 0 0
1 1 1 1 1 1 1 0 0 0 0 0 0 0 0 0 0 0 0 0 0 0 0 0 0 0 0 0 0 0 0 0 0 0 0 0 0 0 0 0 0 0 0
0 1 1 1 1 1 0 0 0 0 0 0 0 0 0 0 0 0 0 0 0 0 0 0 0 0 0 0 0 0 0 0 0 0 0 0 0 0 0 0 0 0 0
0 0 1 1 1 1 1 0 0 0 0 0 0 0 0 0 0 0 0 0 0 0 0 0 0 0 0 0 0 0 0 0 0 0 0 0 0 0 0 0 0 0 0
0 0 0 1 1 1 1 0 0 0 0 0 0 0 0 0 0 0 0 0 0 0 0 0 0 0 0 0 0 0 0 0 0 0 0 0 0 0 0 0 0 0 0
0 0 0 1 1 1 1 1 1 0 0 0 0 0 0 0 0 0 0 0 0 0 0 0 0 0 0 0 0 0 0 0 0 0 0 0 0 0 0 0 0 0 0
0 0 0 1 1 1 1 1 1 0 0 0 0 0 0 0 0 0 0 0 0 0 0 0 0 0 0 0 0 0 0 0 0 0 0 0 0 0 0 0 0 0 0
0 0 0 1 1 1 1 1 0 0 0 0 0 0 0 0 0 0 0 0 0 0 0 0 0 0 0 0 0 0 0 0 0 0 0 0 0 0 0 0 0 0 0
0 0 0 0 1 2 2 1 1 1 1 0 0 0 0 0 0 0 0 0 0 0 0 0 0 0 0 0 0 0 0 0 0 0 0 0 0 0 0 0 0 0 0
0 0 0 0 1 2 3 3 3 2 1 0 0 0 0 0 0 0 0 0 0 0 0 0 0 0 0 0 0 0 0 0 0 0 0 0 0 0 0 0 0 0 0
0 0 0 0 0 2 2 2 0 0 0 0 0 0 0 0 0 0 0 0 0 0 0 0 0 0 0 0 0 0 0 0 0 0 0 0 0 0 0 0 0 0 0
0 0 0 0 0 2 2 2 0 1 0 0 0 0 0 0 0 0 0 0 0 0 0 0 0 0 0 0 0 0 0 0 0 0 0 0 0 0 0 0 0 0 0
0 0 0 0 0 1 2 2 1 1 1 0 0 0 0 0 0 0 0 0 0 0 0 0 0 0 0 0 0 0 0 0 0 0 0 0 0 0 0 0 0 0 0
0 0 0 0 0 0 2 2 1 1 0 0 0 0 0 0 0 0 0 0 0 0 0 0 0 0 0 0 0 0 0 0 0 0 0 0 0 0 0 0 0 0 0
Wind_Speed_500mb
31 34 35 33 31 28 27 25 23 21 20 20 20 18 20 18 9 5 2 7 8 2 7 23 27 21 23 18 16 11 1 5 17 14 14 13 9 2 1 3 5 9 3
31 39 35 33 32 28 26 24 22 21 22 24 22 23 18 13 8 3 3 2 4 10 16 31 29 24 17 10 3 2 7 4 7 10 8 6 5 11 11 8 7 2 5
29 41 39 35 32 29 27 23 19 20 23 23 20 19 19 15 7 2 9 16 19 21 25 30 26 20 14 8 3 4 5 11 11 10 9 12 13 16 12 8 5 4 5
29 41 42 36 32 30 27 24 22 22 27 34 30 28 22 12 12 18 22 24 26 28 26 24 19 13 10 11 14 17 19 16 12 11 9 13 11 13 12 8 5 5 6
35 38 41 36 34 31 28 25 23 23 24 32 35 29 19 16 20 23 24 25 27 28 28 27 24 23 21 20 20 19 16 13 10 8 6 12 9 6 10 7 4 4 3
39 39 41 37 34 30 27 25 22 23 23 26 34 29 23 22 21 22 23 24 24 25 25 25 25 24 22 19 18 15 10 9 7 3 5 9 10 9 12 6 4 7 6
41 42 40 40 34 31 26 25 21 21 25 28 34 34 28 25 22 20 20 21 22 22 22 23 22 20 16 15 12 10 7 9 4 0 1 9 12 12 11 6 4 4 6
35 41 37 39 33 29 28 26 24 22 24 28 35 34 30 24 20 18 18 18 18 19 19 16 15 13 12 11 10 8 6 8 5 3 6 11 10 11 10 6 2 7 5
28 36 36 29 27 24 26 28 28 27 24 31 34 33 28 21 19 17 15 16 15 15 13 11 9 8 8 7 5 3 3 3 4 5 5 10 12 14 15 14 8 7 9
33 34 35 30 30 27 26 25 27 31 29 29 32 31 28 23 21 21 15 16 12 9 9 6 3 2 3 2 3 2 2 6 8 9 10 14 17 17 18 14 8 4 2
38 35 32 30 30 32 30 28 25 27 32 33 33 33 30 26 28 25 19 16 10 9 8 6 2 2 2 3 7 6 9 14 17 17 18 15 17 10 3 3 3 6 5
48 45 39 33 33 38 36 35 31 27 32 35 35 34 33 28 26 25 23 20 15 13 12 9 6 6 7 8 10 14 16 17 20 20 18 14 6 3 5 7 9 8 7
50 47 45 40 37 41 42 39 37 33 31 35 38 36 34 32 31 30 27 24 20 19 16 12 9 7 10 13 16 19 20 19 19 18 14 12 7 11 7 9 9 7 4
54 52 48 44 41 40 37 39 40 40 35 37 40 42 41 37 33 31 25 25 24 22 18 14 11 12 14 19 21 21 20 17 17 14 10 8 6 13 8 1 0 4 6
53 53 55 49 45 44 47 36 34 42 41 37 40 44 44 39 36 31 28 29 27 22 18 16 14 16 19 21 22 19 17 13 12 11 9 4 4 7 6 5 6 8 10
60 60 57 55 51 52 49 45 44 41 36 39 44 45 43 39 37 35 37 33 29 20 19 19 18 19 19 21 21 18 15 11 10 11 9 5 2 4 6 6 7 9 11
39 48 73 64 58 62 60 55 52 49 42 43 40 45 41 37 37 41 44 39 28 23 24 22 20 20 20 19 19 16 11 10 10 10 7 5 3 3 4 7 11 13 13
51 44 58 75 67 64 69 65 60 55 50 47 43 41 40 36 42 45 45 39 32 31 28 24 21 19 17 16 14 11 10 11 10 8 7 5 6 7 8 10 13 17 17
69 61 49 71 74 70 70 62 62 57 56 49 45 43 44 42 41 42 41 38 37 35 30 26 21 18 14 12 7 6 5 6 9 7 7 7 9 11 10 19 17 18 22
74 77 72 58 78 77 74 63 63 62 61 55 54 55 54 52 49 43 44 43 38 36 31 27 22 16 11 7 4 6 6 10 9 8 10 12 14 14 23 18 20 26 28
71 69 69 68 64 80 82 73 67 71 70 61 61 63 62 60 53 50 54 49 41 37 30 28 22 15 8 6 7 11 10 11 11 13 14 15 17 22 24 25 27 33 38
49 50 72 80 66 74 88 85 81 72 77 65 69 64 67 65 58 57 56 53 47 41 35 31 24 17 11 8 9 14 13 12 14 15 19 21 25 26 25 28 37 41 44
69 62 58 53 55 72 75 88 83 72 77 76 72 71 73 69 63 64 58 55 52 44 36 33 27 20 15 11 9 8 8 9 14 20 25 26 27 26 29 33 38 45 44
64 67 72 69 58 56 67 86 92 90 87 85 82 81 76 71 70 68 61 62 56 49 42 37 30 24 17 12 8 7 7 10 8 10 24 29 33 32 34 42 40 42 39
47 52 57 65 67 61 61 79 89 94 87 88 84 84 81 79 74 71 71 67 60 52 45 39 33 26 18 13 10 9 9 11 14 17 17 21 32 36 43 39 42 38 39
42 49 52 52 65 60 59 68 85 93 93 92 86 90 87 85 81 76 76 68 62 55 49 44 37 28 20 16 12 12 13 14 17 19 25 34 40 44 40 40 36 34 40
Wind_Direction_500mb
176 169 168 163 161 161 160 163 165 168 170 159 159 159 161 171 184 203 235 274 284 228 147 127 107 106 116 103 103 120 154 279 238 236 240 238 237 230 314 221 158 93 161
169 171 172 164 160 157 153 153 157 164 168 158 165 170 178 182 178 213 263 258 145 127 133 138 134 136 136 148 153 253 290 245 168 167 159 147 104 74 64 77 141 135 35
184 173 169 166 160 155 149 142 141 145 161 160 152 146 150 142 128 136 122 115 108 107 126 143 151 149 170 196 248 265 140 134 128 109 106 92 73 65 62 73 78 27 71
189 179 172 166 163 158 151 141 138 138 143 146 147 158 154 141 125 120 115 113 112 112 119 142 161 170 161 125 109 104 116 121 117 95 76 71 73 57 54 57 67 53 79
186 184 174 169 168 165 155 145 144 137 143 161 166 173 167 149 129 121 116 114 113 112 113 116 118 116 111 102 100 103 111 115 109 94 83 59 54 21 26 24 30 56 50
183 186 179 174 172 169 160 150 144 140 142 157 172 168 161 145 129 122 118 114 111 112 109 107 108 105 99 94 93 98 112 130 135 104 55 31 355 343 340 315 136 62 52
182 187 183 178 175 172 166 156 149 144 144 152 159 160 158 146 136 127 122 119 117 116 113 111 108 103 95 85 81 92 124 163 194 214 343 340 334 332 337 347 13 16 342
187 185 184 182 180 175 173 167 159 156 149 150 156 158 159 158 147 140 132 127 120 117 116 107 97 89 81 73 81 84 122 192 213 241 258 290 303 309 317 306 248 202 216
190 185 185 189 185 181 179 173 169 166 161 158 159 165 168 173 175 160 148 140 127 129 124 112 101 87 75 79 74 82 159 234 278 253 257 269 287 296 304 296 300 270 269
200 198 198 195 196 198 184 178 174 177 176 172 171 174 179 182 186 185 167 158 139 147 146 140 120 83 84 78 12 31 246 273 278 274 266 274 289 295 294 309 331 360 248
217 211 209 213 218 214 199 192 187 186 189 184 180 183 185 184 179 185 184 182 179 181 184 190 223 229 218 279 296 282 275 285 283 277 275 284 293 301 278 126 148 147 195
215 215 218 221 223 215 207 203 199 194 196 192 189 189 191 189 185 191 197 204 209 205 207 217 214 234 280 291 292 288 286 282 283 273 273 278 278 179 138 162 163 164 200
220 221 226 221 221 216 217 214 210 205 202 199 197 198 200 198 197 196 203 211 213 219 218 218 229 262 290 292 293 293 293 295 279 274 277 280 245 190 137 135 169 174 197
221 231 231 225 224 219 222 222 225 215 207 206 205 207 209 206 202 201 203 213 215 218 221 228 243 272 282 290 293 291 291 289 282 275 278 282 237 208 224 202 324 275 303
222 226 229 225 223 226 223 223 227 223 222 218 212 214 216 213 211 209 212 213 217 217 223 235 253 273 285 291 294 294 293 292 276 271 278 278 213 216 235 265 280 297 310
226 229 231 227 224 227 231 231 229 229 232 222 213 215 217 218 220 217 216 219 214 223 233 245 257 270 282 290 293 293 292 288 275 271 266 268 251 238 253 273 300 307 314
239 237 228 227 227 226 229 230 235 238 232 225 215 216 218 216 227 217 215 223 226 241 241 248 257 268 280 287 289 288 278 278 270 266 281 307 286 260 276 309 305 311 317
244 246 240 227 227 227 228 229 230 233 234 222 218 220 217 221 221 218 220 223 230 240 244 252 254 264 277 284 287 276 260 258 250 247 280 294 285 296 317 318 318 312 313
242 245 247 236 229 229 230 232 239 226 229 218 213 222 223 224 231 218 221 226 238 238 241 247 248 257 267 277 266 242 238 213 212 238 271 289 307 325 334 320 316 315 316
239 247 249 251 238 234 231 233 238 220 229 218 208 219 221 226 231 222 223 232 237 235 238 238 239 247 254 261 218 195 152 158 195 238 262 288 303 302 317 310 311 316 317
240 237 249 251 243 233 230 229 228 220 223 224 210 221 222 228 229 225 224 237 241 233 237 232 233 234 232 215 188 173 157 169 200 231 246 262 275 288 297 301 307 314 318
252 245 245 246 244 237 233 231 231 224 224 227 211 224 223 228 226 223 229 240 238 230 231 228 228 226 218 200 208 187 183 199 208 225 239 253 270 278 289 300 312 315 314
255 253 249 252 251 246 237 235 230 231 226 220 213 223 221 227 227 227 231 237 233 227 227 229 228 226 228 212 197 203 191 201 207 231 240 251 259 271 287 300 303 305 305
257 258 256 251 255 251 238 233 229 225 222 223 221 219 219 226 229 231 236 234 228 225 220 226 228 227 228 234 226 223 227 241 226 228 241 250 259 267 282 296 298 300 302
256 255 257 256 255 251 246 235 234 233 228 227 226 222 223 221 229 233 233 228 222 221 218 223 227 228 231 241 254 262 262 260 259 254 262 249 262 268 287 296 303 303 303
256 253 257 259 240 253 248 242 231 232 232 229 226 222 222 223 223 228 229 220 221 219 217 222 224 227 233 246 262 277 282 283 279 274 277 286 290 296 299 303 303 306 307
Wind_Speed_850mb
31 34 35 33 31 28 27 25 23 21 20 20 20 18 20 18 9 5 2 7 8 2 7 23 27 21 23 18 16 11 1 5 17 14 14 13 9 2 1 3 5 9 3
31 39 35 33 32 28 26 24 22 21 22 24 22 23 18 13 8 3 3 2 4 10 16 31 29 24 17 10 3 2 7 4 7 10 8 6 5 11 11 8 7 2 5
29 41 39 35 32 29 27 23 19 20 23 23 20 19 19 15 7 2 9 16 19 21 25 30 26 20 14 8 3 4 5 11 11 10 9 12 13 16 12 8 5 4 5
29 41 42 36 32 30 27 24 22 22 27 34 30 28 22 12 12 18 22 24 26 28 26 24 19 13 10 11 14 17 19 16 12 11 9 13 11 13 12 8 5 5 6
35 38 41 36 34 31 28 25 23 23 24 32 35 29 19 16 20 23 24 25 27 28 28 27 24 23 21 20 20 19 16 13 10 8 6 12 9 6 10 7 4 4 3
39 39 41 37 34 30 27 25 22 23 23 26 34 29 23 22 21 22 23 24 24 25 25 25 25 24 22 19 18 15 10 9 7 3 5 9 10 9 12 6 4 7 6
41 42 40 40 34 31 26 25 21 21 25 28 34 34 28 25 22 20 20 21 22 22 22 23 22 20 16 15 12 10 7 9 4 0 1 9 12 12 11 6 4 4 6
35 41 37 39 33 29 28 26 24 22 24 28 35 34 30 24 20 18 18 18 18 19 19 16 15 13 12 11 10 8 6 8 5 3 6 11 10 11 10 6 2 7 5
28 36 36 29 27 24 26 28 28 27 24 31 34 33 28 21 19 17 15 16 15 15 13 11 9 8 8 7 5 3 3 3 4 5 5 10 12 14 15 14 8 7 9
33 34 35 30 30 27 26 25 27 31 29 29 32 31 28 23 21 21 15 16 12 9 9 6 3 2 3 2 3 2 2 6 8 9 10 14 17 17 18 14 8 4 2
38 35 32 30 30 32 30 28 25 27 32 33 33 33 30 26 28 25 19 16 10 9 8 6 2 2 2 3 7 6 9 14 17 17 18 15 17 10 3 3 3 6 5
48 45 39 33 33 38 36 35 31 27 32 35 35 34 33 28 26 25 23 20 15 13 12 9 6 6 7 8 10 14 16 17 20 20 18 14 6 3 5 7 9 8 7
50 47 45 40 37 41 42 39 37 33 31 35 38 36 34 32 31 30 27 24 20 19 16 12 9 7 10 13 16 19 20 19 19 18 14 12 7 11 7 9 9 7 4
54 52 48 44 41 40 37 39 40 40 35 37 40 42 41 37 33 31 25 25 24 22 18 14 11 12 14 19 21 21 20 17 17 14 10 8 6 13 8 1 0 4 6
53 53 55 49 45 44 47 36 34 42 41 37 40 44 44 39 36 31 28 29 27 22 18 16 14 16 19 21 22 19 17 13 12 11 9 4 4 7 6 5 6 8 10
60 60 57 55 51 52 49 45 44 41 36 39 44 45 43 39 37 35 37 33 29 20 19 19 18 19 19 21 21 18 15 11 10 11 9 5 2 4 6 6 7 9 11
39 48 73 64 58 62 60 55 52 49 42 43 40 45 41 37 37 41 44 39 28 23 24 22 20 20 20 19 19 16 11 10 10 10 7 5 3 3 4 7 11 13 13
51 44 58 75 67 64 69 65 60 55 50 47 43 41 40 36 42 45 45 39 32 31 28 24 21 19 17 16 14 11 10 11 10 8 7 5 6 7 8 10 13 17 17
69 61 49 71 74 70 70 62 62 57 56 49 45 43 44 42 41 42 41 38 37 35 30 26 21 18 14 12 7 6 5 6 9 7 7 7 9 11 10 19 17 18 22
74 77 72 58 78 77 74 63 63 62 61 55 54 55 54 52 49 43 44 43 38 36 31 27 22 16 11 7 4 6 6 10 9 8 10 12 14 14 23 18 20 26 28
71 69 69 68 64 80 82 73 67 71 70 61 61 63 62 60 53 50 54 49 41 37 30 28 22 15 8 6 7 11 10 11 11 13 14 15 17 22 24 25 27 33 38
49 50 72 80 66 74 88 85 81 72 77 65 69 64 67 65 58 57 56 53 47 41 35 31 24 17 11 8 9 14 13 12 14 15 19 21 25 26 25 28 37 41 44
69 62 58 53 55 72 75 88 83 72 77 76 72 71 73 69 63 64 58 55 52 44 36 33 27 20 15 11 9 8 8 9 14 20 25 26 27 26 29 33 38 45 44
64 67 72 69 58 56 67 86 92 90 87 85 82 81 76 71 70 68 61 62 56 49 42 37 30 24 17 12 8 7 7 10 8 10 24 29 33 32 34 42 40 42 39
47 52 57 65 67 61 61 79 89 94 87 88 84 84 81 79 74 71 71 67 60 52 45 39 33 26 18 13 10 9 9 11 14 17 17 21 32 36 43 39 42 38 39
42 49 52 52 65 60 59 68 85 93 93 92 86 90 87 85 81 76 76 68 62 55 49 44 37 28 20 16 12 12 13 14 17 19 25 34 40 44 40 40 36 34 40
Wind_Direction_850mb
176 169 168 163 161 161 160 163 165 168 170 159 159 159 161 171 184 203 235 274 284 228 147 127 107 106 116 103 103 120 154 279 238 236 240 238 237 230 314 221 158 93 161
169 171 172 164 160 157 153 153 157 164 168 158 165 170 178 182 178 213 263 258 145 127 133 138 134 136 136 148 153 253 290 245 168 167 159 147 104 74 64 77 141 135 35
184 173 169 166 160 155 149 142 141 145 161 160 152 146 150 142 128 136 122 115 108 107 126 143 151 149 170 196 248 265 140 134 128 109 106 92 73 65 62 73 78 27 71
189 179 172 166 163 158 151 141 138 138 143 146 147 158 154 141 125 120 115 113 112 112 119 142 161 170 161 125 109 104 116 121 117 95 76 71 73 57 54 57 67 53 79
186 184 174 169 168 165 155 145 144 137 143 161 166 173 167 149 129 121 116 114 113 112 113 116 118 116 111 102 100 103 111 115 109 94 83 59 54 21 26 24 30 56 50
183 186 179 174 172 169 160 150 144 140 142 157 172 168 161 145 129 122 118 114 111 112 109 107 108 105 99 94 93 98 112 130 135 104 55 31 355 343 340 315 136 62 52
182 187 183 178 175 172 166 156 149 144 144 152 159 160 158 146 136 127 122 119 117 116 113 111 108 103 95 85 81 92 124 163 194 214 343 340 334 332 337 347 13 16 342
187 185 184 182 180 175 173 167 159 156 149 150 156 158 159 158 147 140 132 127 120 117 116 107 97 89 81 73 81 84 122 192 213 241 258 290 303 309 317 306 248 202 216
190 185 185 189 185 181 179 173 169 166 161 158 159 165 168 173 175 160 148 140 127 129 124 112 101 87 75 79 74 82 159 234 278 253 257 269 287 296 304 296 300 270 269
200 198 198 195 196 198 184 178 174 177 176 172 171 174 179 182 186 185 167 158 139 147 146 140 120 83 84 78 12 31 246 273 278 274 266 274 289 295 294 309 331 360 248
217 211 209 213 218 214 199 192 187 186 189 184 180 183 185 184 179 185 184 182 179 181 184 190 223 229 218 279 296 282 275 285 283 277 275 284 293 301 278 126 148 147 195
215 215 218 221 223 215 207 203 199 194 196 192 189 189 191 189 185 191 197 204 209 205 207 217 214 234 280 291 292 288 286 282 283 273 273 278 278 179 138 162 163 164 200
220 221 226 221 221 216 217 214 210 205 202 199 197 198 200 198 197 196 203 211 213 219 218 218 229 262 290 292 293 293 293 295 279 274 277 280 245 190 137 135 169 174 197
221 231 231 225 224 219 222 222 225 215 207 206 205 207 209 206 202 201 203 213 215 218 221 228 243 272 282 290 293 291 291 289 282 275 278 282 237 208 224 202 324 275 303
222 226 229 225 223 226 223 223 227 223 222 218 212 214 216 213 211 209 212 213 217 217 223 235 253 273 285 291 294 294 293 292 276 271 278 278 213 216 235 265 280 297 310
226 229 231 227 224 227 231 231 229 229 232 222 213 215 217 218 220 217 216 219 214 223 233 245 257 270 282 290 293 293 292 288 275 271 266 268 251 238 253 273 300 307 314
239 237 228 227 227 226 229 230 235 238 232 225 215 216 218 216 227 217 215 223 226 241 241 248 257 268 280 287 289 288 278 278 270 266 281 307 286 260 276 309 305 311 317
244 246 240 227 227 227 228 229 230 233 234 222 218 220 217 221 221 218 220 223 230 240 244 252 254 264 277 284 287 276 260 258 250 247 280 294 285 296 317 318 318 312 313
242 245 247 236 229 229 230 232 239 226 229 218 213 222 223 224 231 218 221 226 238 238 241 247 248 257 267 277 266 242 238 213 212 238 271 289 307 325 334 320 316 315 316
239 247 249 251 238 234 231 233 238 220 229 218 208 219 221 226 231 222 223 232 237 235 238 238 239 247 254 261 218 195 152 158 195 238 262 288 303 302 317 310 311 316 317
240 237 249 251 243 233 230 229 228 220 223 224 210 221 222 228 229 225 224 237 241 233 237 232 233 234 232 215 188 173 157 169 200 231 246 262 275 288 297 301 307 314 318
252 245 245 246 244 237 233 231 231 224 224 227 211 224 223 228 226 223 229 240 238 230 231 228 228 226 218 200 208 187 183 199 208 225 239 253 270 278 289 300 312 315 314
255 253 249 252 251 246 237 235 230 231 226 220 213 223 221 227 227 227 231 237 233 227 227 229 228 226 228 212 197 203 191 201 207 231 240 251 259 271 287 300 303 305 305
257 258 256 251 255 251 238 233 229 225 222 223 221 219 219 226 229 231 236 234 228 225 220 226 228 227 228 234 226 223 227 241 226 228 241 250 259 267 282 296 298 300 302
256 255 257 256 255 251 246 235 234 233 228 227 226 222 223 221 229 233 233 228 222 221 218 223 227 228 231 241 254 262 262 260 259 254 262 249 262 268 287 296 303 303 303
256 253 257 259 240 253 248 242 231 232 232 229 226 222 222 223 223 228 229 220 221 219 217 222 224 227 233 246 262 277 282 283 279 274 277 286 290 296 299 303 303 306 307